This demonstration page uses our WeatherBlox Daily Observations layout. Learn more.

Left ArrowRight Arrow

Hourly Observations for April 1, 2016

Temp ( °F °C ) Dew Point ( °F °C ) Humidity (%) Winds ( mph kmh ) Pressure ( in mb ) Visibility ( mi km ) Precip ( " mm )
12:53 am 00:53 Clear 55 12.8 48 8.9 77 77 Calm 30.08 1019 10 16 0.00 0.00
1:53 am 01:53 Clear 53 11.7 48 8.9 83 83 NNE 3 6 30.08 1019 10 16 0.00 0.00
2:53 am 02:53 Clear 51 10.6 47 8.3 86 86 WNW 3 6 30.08 1019 10 16 0.00 0.00
3:53 am 03:53 Clear 51 10.6 46 7.8 83 83 Calm 30.08 1019 10 16 0.00 0.00
4:53 am 04:53 Clear 50 10 45 7.2 83 83 NW 3 6 30.08 1019 10 16 0.00 0.00
5:53 am 05:53 Clear 51 10.6 47 8.3 86 86 Calm 30.08 1019 10 16 0.00 0.00
6:53 am 06:53 Sunny 50 10 45 7.2 83 83 Calm 30.09 1019 10 16 0.00 0.00
7:53 am 07:53 Sunny 50 10 46 7.8 86 86 Calm 30.10 1019 10 16 0.00 0.00
8:53 am 08:53 Sunny 57 13.9 50 10 78 78 Calm 30.11 1020 10 16 0.00 0.00
9:53 am 09:53 Sunny 62 16.7 51 10.6 67 67 VRB 3 6 30.11 1020 10 16 0.00 0.00
10:53 am 10:53 Sunny 65 18.3 52 11.1 63 63 SSE 3 6 30.11 1020 10 16 0.00 0.00
11:53 am 11:53 Sunny 69 20.6 49 9.4 49 49 S 6 9 30.10 1019 10 16 0.00 0.00
12:53 pm 12:53 Sunny 73 22.8 49 9.4 43 43 Calm 30.08 1019 10 16 0.00 0.00
1:53 pm 13:53 Sunny 75 23.9 52 11.1 45 45 SE 6 9 30.07 1018 10 16 0.00 0.00
2:53 pm 14:53 Sunny 76 24.4 54 12.2 47 47 SSE 10 17 30.06 1018 10 16 0.00 0.00
3:53 pm 15:53 Sunny 76 24.4 55 12.8 48 48 SSE 13 20 30.05 1018 10 16 0.00 0.00
4:53 pm 16:53 Sunny 76 24.4 54 12.2 47 47 S 10 17 30.05 1018 10 16 0.00 0.00
5:53 pm 17:53 Sunny 74 23.3 54 12.2 50 50 S 10 17 30.05 1018 10 16 0.00 0.00
6:53 pm 18:53 Sunny 72 22.2 53 11.7 52 52 S 8 13 30.06 1018 10 16 0.00 0.00
7:53 pm 19:53 Clear 68 20 54 12.2 61 61 S 7 11 30.07 1018 10 16 0.00 0.00
8:53 pm 20:53 Clear 65 18.3 54 12.2 68 68 Calm 30.09 1019 10 16 0.00 0.00
9:53 pm 21:53 Clear 62 16.7 54 12.2 75 75 Calm 30.11 1020 10 16 0.00 0.00
10:53 pm 22:53 Clear 60 15.6 53 11.7 78 78 NNE 3 6 30.12 1020 10 16 0.00 0.00
11:53 pm 23:53 Clear 57 13.9 52 11.1 83 83 Calm 30.13 1020 10 16 0.00 0.00

Powered by AerisWeather